Lawrence, MA

11:07 AM EDT on October 18, 2017 (GMT -0400)
Lawrence Municipal

Weather History for KLWM - August, 2013

Change the Weather History Date:

Saturday, August 3, 2013

  Actual Average Record
Temperature  
Mean Temperature 72 °F -  
Max Temperature 80 °F 84 °F 101 °F (1975)
Min Temperature 64 °F 64 °F 50 °F (1927)
Cooling Degree Days 7    
Growing Degree Days 22 (Base 50)    
Moisture  
Dew Point 59 °F    
Average Humidity 69    
Maximum Humidity 90    
Minimum Humidity 45    
Precipitation  
Precipitation 0.00 in - - ()
Sea Level Pressure  
Sea Level Pressure 29.83 in    
Wind  
Wind Speed 5 mph (SW)    
Max Wind Speed 14 mph    
Max Gust Speed 22 mph    
Visibility 10 miles    
Events      
Averages and records for this station are not official NWS values.
T = Trace of Precipitation, MM = Missing Value Source: NWS Daily Summary

Daily Weather History Graph

Daily Weather History Graph

Search for Another Location

Airport or City:

Trip Planner

Search our weather history database for the weather conditions in past years. The results will help you decide how hot, cold, wet, or windy it might be!

Date:

Astronomy

Aug. 03, 2013 Rise Set
Actual Time 5:38 AM EDT 8:02 PM EDT
Civil Twilight 5:06 AM EDT 8:33 PM EDT
Nautical Twilight 4:27 AM EDT 9:13 PM EDT
Astronomical Twilight 3:42 AM EDT 9:57 PM EDT
Moon 2:44 AM EDT (8/3) 5:43 PM EDT (8/3)
Length of Visible Light 15h 27m
Length of Day
14h 23m
Waning Crescent, 9% of the Moon is Illuminated
Aug 3
Waning Crescent
Aug 6
New
Aug 14
First Quarter
Aug 20
Full
Aug 28
Last Quarter

Hourly Weather History & Observations

Time (EDT) Temp. Heat Index Dew Point Humidity Pressure Visibility Wind Dir Wind Speed Gust Speed Precip Events Conditions
12:54 AM 66.0 °F - 62.1 °F 87% 29.88 in 10.0 mi Calm Calm - N/A   Scattered Clouds
1:54 AM 64.9 °F - 62.1 °F 90% 29.86 in 10.0 mi Calm Calm - N/A   Mostly Cloudy
2:54 AM 64.0 °F - 61.0 °F 90% 29.84 in 10.0 mi South 3.5 mph - N/A   Clear
3:54 AM 64.0 °F - 61.0 °F 90% 29.82 in 10.0 mi SW 3.5 mph - N/A   Clear
4:54 AM 64.0 °F - 60.1 °F 87% 29.83 in 10.0 mi South 4.6 mph - N/A   Clear
5:54 AM 64.0 °F - 60.1 °F 87% 29.84 in 10.0 mi SSW 4.6 mph - N/A   Clear
6:54 AM 64.9 °F - 61.0 °F 87% 29.84 in 10.0 mi SSW 3.5 mph - N/A   Scattered Clouds
7:54 AM 66.9 °F - 62.1 °F 84% 29.83 in 10.0 mi SSW 5.8 mph - N/A   Clear
8:54 AM 70.0 °F - 62.1 °F 76% 29.83 in 10.0 mi WSW 8.1 mph - N/A   Partly Cloudy
9:54 AM 71.1 °F - 61.0 °F 70% 29.83 in 10.0 mi WSW 11.5 mph - N/A   Clear
10:54 AM 73.0 °F - 61.0 °F 66% 29.83 in 10.0 mi WSW 11.5 mph - N/A   Clear
11:54 AM 75.0 °F - 61.0 °F 62% 29.82 in 10.0 mi WSW 9.2 mph 17.3 mph N/A   Partly Cloudy
12:54 PM 78.1 °F - 60.1 °F 54% 29.81 in 10.0 mi West 13.8 mph - N/A   Scattered Clouds
1:54 PM 78.1 °F - 60.1 °F 54% 29.81 in 10.0 mi West 9.2 mph 17.3 mph N/A   Mostly Cloudy
2:54 PM 79.0 °F - 57.0 °F 47% 29.81 in 10.0 mi West 10.4 mph - N/A   Scattered Clouds
3:54 PM 78.1 °F - 57.0 °F 48% 29.80 in 10.0 mi WSW 10.4 mph - N/A   Scattered Clouds
4:54 PM 80.1 °F 80.4 °F 57.0 °F 45% 29.78 in 10.0 mi WSW 13.8 mph 21.9 mph N/A   Clear
5:54 PM 78.1 °F - 57.0 °F 48% 29.78 in 10.0 mi SSW 10.4 mph - N/A   Clear
6:54 PM 78.1 °F - 57.9 °F 50% 29.79 in 10.0 mi WSW 12.7 mph - N/A   Clear
7:54 PM 75.0 °F - 57.0 °F 53% 29.80 in 10.0 mi West 4.6 mph - N/A   Clear
8:54 PM 73.0 °F - 55.9 °F 55% 29.83 in 10.0 mi West 3.5 mph - N/A   Clear
9:54 PM 68.0 °F - 57.9 °F 70% 29.84 in 10.0 mi SSW 3.5 mph - N/A   Clear
10:54 PM 68.0 °F - 57.9 °F 70% 29.85 in 10.0 mi Calm Calm - N/A   Clear
11:54 PM 66.0 °F - 57.9 °F 75% 29.85 in 10.0 mi SSW 3.5 mph - N/A   Clear